17-08-2022, 00:00:00,      0,    0.0,   14.4,   0.00,   0.00, 1008.4,   98.8, -999.0
17-08-2022, 00:00:10,      0,    0.0,   14.4,   0.00,   0.00, 1008.3,   98.7, -999.0
17-08-2022, 00:00:20,      0,    0.0,   14.5,   0.00,   0.00, 1008.3,   98.8, -999.0
17-08-2022, 00:00:30,      0,    0.0,   14.4,   0.00,   0.00, 1008.3,   98.7, -999.0
17-08-2022, 00:00:40,      7,    0.0,   14.4,   0.00,   0.00, 1008.3,   98.7, -999.0
17-08-2022, 00:00:49,      0,    0.0,   14.4,   0.00,   0.00, 1008.3,   98.8, -999.0
17-08-2022, 00:01:00,      0,    0.0,   14.4,   0.00,   0.00, 1008.3,   98.8, -999.0
17-08-2022, 00:01:10,      0,    0.0,   14.4,   0.00,   0.00, 1008.3,   98.8, -999.0
17-08-2022, 00:01:19,      0,    0.0,   14.4,   0.00,   0.00, 1008.3,   98.8, -999.0
17-08-2022, 00:01:29,      0,    0.0,   14.5,   0.00,   0.00, 1008.4,   98.8, -999.0
17-08-2022, 00:01:39,      0,    0.0,   14.5,   0.00,   0.00, 1008.3,   98.7, -999.0
17-08-2022, 00:01:49,      0,    0.0,   14.4,   0.00,   0.00, 1008.4,   98.8, -999.0
17-08-2022, 00:01:59,      0,    0.0,   14.5,   0.00,   0.00, 1008.3,   98.8, -999.0
17-08-2022, 00:02:09,      0,    0.0,   14.5,   0.00,   0.00, 1008.4,   98.8, -999.0
17-08-2022, 00:02:19,      0,    0.0,   14.5,   0.00,   0.00, 1008.3,   98.8, -999.0
17-08-2022, 00:02:29,      0,    0.0,   14.5,   0.00,   0.00, 1008.4,   98.8, -999.0
17-08-2022, 00:02:39,      0,    0.0,   14.3,   0.00,   0.00, 1008.3,   98.8, -999.0
17-08-2022, 00:02:49,      0,    0.0,   14.4,   0.00,   0.00, 1008.3,   98.7, -999.0
17-08-2022, 00:02:59,      0,    0.0,   14.4,   0.00,   0.00, 1008.3,   98.8, -999.0
17-08-2022, 00:03:09,      0,    0.0,   14.5,   0.00,   0.00, 1008.4,   98.7, -999.0
17-08-2022, 00:03:19,      0,    0.0,   14.5,   0.00,   0.00, 1008.4,   98.7, -999.0
17-08-2022, 00:03:29,      0,    0.0,   14.4,   0.00,   0.00, 1008.4,   98.8, -999.0
17-08-2022, 00:03:39,      0,    0.0,   14.3,   0.00,   0.00, 1008.4,   98.8, -999.0
17-08-2022, 00:03:49,      0,    0.0,   14.4,   0.00,   0.00, 1008.4,   98.8, -999.0
17-08-2022, 00:03:58,      0,    0.0,   14.4,   0.00,   0.00, 1008.4,   98.8, -999.0
17-08-2022, 00:04:09,      0,    0.0,   14.5,   0.00,   0.00, 1008.4,   98.7, -999.0
17-08-2022, 00:04:18,      0,    0.0,   14.4,   0.00,   0.00, 1008.4,   98.8, -999.0
17-08-2022, 00:04:28,      0,    0.0,   14.4,   0.00,   0.00, 1008.4,   98.7, -999.0
17-08-2022, 00:04:38,      0,    0.0,   14.5,   0.00,   0.00, 1008.4,   98.7, -999.0
17-08-2022, 00:04:48,      0,    0.0,   14.4,   0.00,   0.00, 1008.4,   98.8, -999.0
17-08-2022, 00:04:58,      0,    0.0,   14.4,   0.00,   0.00, 1008.4,   98.8, -999.0
17-08-2022, 00:05:08,      0,    0.0,   14.4,   0.00,   0.00, 1008.4,   98.8, -999.0
17-08-2022, 00:05:18,      0,    0.0,   14.3,   0.00,   0.00, 1008.4,   98.8, -999.0
17-08-2022, 00:05:28,      0,    0.0,   14.5,   0.00,   0.00, 1008.4,   98.7, -999.0
17-08-2022, 00:05:38,      0,    0.0,   14.5,   0.00,   0.00, 1008.4,   98.8, -999.0
17-08-2022, 00:05:48,      0,    0.0,   14.4,   0.00,   0.00, 1008.3,   98.7, -999.0
17-08-2022, 00:05:58,      0,    0.0,   14.4,   0.00,   0.00, 1008.3,   98.8, -999.0
17-08-2022, 00:06:08,      0,    0.0,   14.4,   0.00,   0.00, 1008.3,   98.7, -999.0
17-08-2022, 00:06:18,      0,    0.0,   14.4,   0.00,   0.00, 1008.4,   98.8, -999.0
17-08-2022, 00:06:28,      0,    0.0,   14.4,   0.00,   0.00, 1008.3,   98.8, -999.0
17-08-2022, 00:06:37,      0,    0.0,   14.4,   0.00,   0.00, 1008.3,   98.7, -999.0
17-08-2022, 00:06:48,      5,    0.0,   14.4,   0.00,   0.00, 1008.3,   98.9, -999.0
17-08-2022, 00:06:57,      0,    0.0,   14.5,   0.00,   0.00, 1008.3,   98.8, -999.0
17-08-2022, 00:07:07,      0,    0.0,   14.4,   0.00,   0.00, 1008.3,   98.8, -999.0
17-08-2022, 00:07:18,      0,    0.0,   14.5,   0.00,   0.00, 1008.3,   98.7, -999.0
17-08-2022, 00:07:27,      0,    0.0,   14.4,   0.00,   0.00, 1008.3,   98.7, -999.0
17-08-2022, 00:07:37,      0,    0.0,   14.5,   0.00,   0.00, 1008.3,   98.7, -999.0
17-08-2022, 00:07:47,      0,    0.0,   14.5,   0.00,   0.00, 1008.3,   98.8, -999.0
17-08-2022, 00:07:57,      0,    0.0,   14.5,   0.00,   0.00, 1008.3,   98.7, -999.0
17-08-2022, 00:08:07,      0,    0.0,   14.5,   0.00,   0.00, 1008.3,   98.7, -999.0
17-08-2022, 00:08:17,      0,    0.0,   14.5,   0.00,   0.00, 1008.3,   98.8, -999.0
17-08-2022, 00:08:27,      0,    0.0,   14.5,   0.00,   0.00, 1008.3,   98.7, -999.0
17-08-2022, 00:08:37,      0,    0.0,   14.5,   0.00,   0.00, 1008.3,   98.8, -999.0
17-08-2022, 00:08:47,      0,    0.0,   14.4,   0.00,   0.00, 1008.3,   98.7, -999.0
17-08-2022, 00:08:57,      0,    0.0,   14.5,   0.00,   0.00, 1008.3,   98.8, -999.0
17-08-2022, 00:09:07,      0,    0.0,   14.5,   0.00,   0.00, 1008.3,   98.8, -999.0
17-08-2022, 00:09:17,      0,    0.0,   14.5,   0.00,   0.00, 1008.3,   98.7, -999.0
17-08-2022, 00:09:27,      3,    0.0,   14.5,   0.00,   0.00, 1008.3,   98.7, -999.0
17-08-2022, 00:09:36,      0,    0.0,   14.5,   0.00,   0.00, 1008.3,   98.9, -999.0
17-08-2022, 00:09:46,      0,    0.0,   14.4,   0.00,   0.00, 1008.3,   98.7, -999.0
17-08-2022, 00:09:57,      0,    0.0,   14.4,   0.00,   0.00, 1008.3,   98.7, -999.0
17-08-2022, 00:10:06,      0,    0.0,   14.5,   0.00,   0.00, 1008.3,   98.7, -999.0
17-08-2022, 00:10:16,      0,    0.0,   14.5,   0.00,   0.00, 1008.3,   98.7, -999.0
17-08-2022, 00:10:27,      0,    0.0,   14.4,   0.00,   0.00, 1008.3,   98.7, -999.0
17-08-2022, 00:10:36,      0,    0.0,   14.4,   0.00,   0.00, 1008.3,   98.8, -999.0
17-08-2022, 00:10:46,      0,    0.0,   14.4,   0.00,   0.00, 1008.3,   98.8, -999.0
17-08-2022, 00:10:56,      7,    0.0,   14.4,   0.00,   0.00, 1008.3,   98.8, -999.0
17-08-2022, 00:11:06,      0,    0.0,   14.4,   0.00,   0.00, 1008.3,   98.7, -999.0
17-08-2022, 00:11:16,      5,    0.0,   14.4,   0.00,   0.00, 1008.3,   98.8, -999.0
17-08-2022, 00:11:26,      0,    0.0,   14.4,   0.00,   0.00, 1008.3,   98.7, -999.0
17-08-2022, 00:11:36,      0,    0.0,   14.3,   0.00,   0.00, 1008.4,   98.7, -999.0
17-08-2022, 00:11:46,      0,    0.0,   14.3,   0.00,   0.00, 1008.3,   98.8, -999.0
17-08-2022, 00:11:56,      4,    0.0,   14.4,   0.00,   0.00, 1008.3,   98.7, -999.0
17-08-2022, 00:12:06,      0,    0.0,   14.5,   0.00,   0.00, 1008.3,   98.8, -999.0
17-08-2022, 00:12:15,      0,    0.0,   14.4,   0.00,   0.00, 1008.3,   98.7, -999.0
17-08-2022, 00:12:26,      0,    0.0,   14.4,   0.00,   0.00, 1008.3,   98.7, -999.0
17-08-2022, 00:12:36,      0,    0.0,   14.4,   0.00,   0.00, 1008.3,   98.7, -999.0
17-08-2022, 00:12:45,      0,    0.0,   14.4,   0.00,   0.00, 1008.3,   98.8, -999.0
17-08-2022, 00:12:55,      0,    0.0,   14.4,   0.00,   0.00, 1008.3,   98.7, -999.0
17-08-2022, 00:13:06,      0,    0.0,   14.5,   0.00,   0.00, 1008.3,   98.8, -999.0
17-08-2022, 00:13:15,      0,    0.0,   14.4,   0.00,   0.00, 1008.3,   98.9, -999.0
17-08-2022, 00:13:25,      0,    0.0,   14.4,   0.00,   0.00, 1008.3,   98.6, -999.0
17-08-2022, 00:13:35,      0,    0.0,   14.5,   0.00,   0.00, 1008.3,   98.8, -999.0
17-08-2022, 00:13:45,      0,    0.0,   14.4,   0.00,   0.00, 1008.3,   98.8, -999.0
17-08-2022, 00:13:55,      0,    0.0,   14.4,   0.00,   0.00, 1008.3,   98.8, -999.0
17-08-2022, 00:14:05,    299,    0.0,   14.5,   0.00,   0.00, 1008.3,   98.7, -999.0
17-08-2022, 00:14:15,    299,    0.0,   14.5,   0.00,   0.00, 1008.3,   98.7, -999.0
17-08-2022, 00:14:25,    299,    0.0,   14.4,   0.00,   0.00, 1008.3,   98.8, -999.0
17-08-2022, 00:14:35,    299,    0.0,   14.4,   0.00,   0.00, 1008.3,   98.8, -999.0
17-08-2022, 00:14:45,    299,    0.0,   14.4,   0.00,   0.00, 1008.3,   98.7, -999.0
17-08-2022, 00:14:55,    299,    0.0,   14.4,   0.00,   0.00, 1008.3,   98.8, -999.0
17-08-2022, 00:15:05,    299,    0.0,   14.4,   0.00,   0.00, 1008.3,   98.8, -999.0
17-08-2022, 00:15:15,    299,    0.0,   14.3,   0.00,   0.00, 1008.3,   98.8, -999.0
17-08-2022, 00:15:24,    299,    0.0,   14.4,   0.00,   0.00, 1008.3,   98.8, -999.0
17-08-2022, 00:15:35,    299,    0.0,   14.3,   0.00,   0.00, 1008.3,   98.7, -999.0
17-08-2022, 00:15:45,    299,    0.0,   14.4,   0.00,   0.00, 1008.3,   98.7, -999.0
17-08-2022, 00:15:54,    299,    0.0,   14.4,   0.00,   0.00, 1008.3,   98.7, -999.0
17-08-2022, 00:16:04,    299,    0.0,   14.4,   0.00,   0.00, 1008.3,   98.8, -999.0
17-08-2022, 00:16:14,    304,    0.0,   14.5,   0.00,   0.00, 1008.3,   98.8, -999.0
17-08-2022, 00:16:24,     34,    0.0,   14.4,   0.00,   0.00, 1008.3,   98.8, -999.0
17-08-2022, 00:16:34,     34,    0.0,   14.4,   0.00,   0.00, 1008.3,   98.7, -999.0
17-08-2022, 00:16:44,     34,    0.0,   14.4,   0.00,   0.00, 1008.3,   98.8, -999.0
17-08-2022, 00:16:54,     34,    0.0,   14.4,   0.00,   0.00, 1008.3,   98.7, -999.0
17-08-2022, 00:17:04,     34,    0.0,   14.4,   0.00,   0.00, 1008.3,   98.8, -999.0
17-08-2022, 00:17:14,     34,    0.0,   14.4,   0.00,   0.00, 1008.3,   98.7, -999.0
17-08-2022, 00:17:24,     34,    0.0,   14.5,   0.00,   0.00, 1008.3,   98.8, -999.0
17-08-2022, 00:17:34,     34,    0.0,   14.4,   0.00,   0.00, 1008.3,   98.7, -999.0
17-08-2022, 00:17:44,     34,    0.0,   14.5,   0.00,   0.00, 1008.3,   98.7, -999.0
17-08-2022, 00:17:54,     34,    0.0,   14.4,   0.00,   0.00, 1008.3,   98.8, -999.0
17-08-2022, 00:18:04,     34,    0.0,   14.4,   0.00,   0.00, 1008.3,   98.8, -999.0
17-08-2022, 00:18:14,     34,    0.0,   14.4,   0.00,   0.00, 1008.3,   98.8, -999.0
17-08-2022, 00:18:24,     34,    0.0,   14.4,   0.00,   0.00, 1008.3,   98.7, -999.0
17-08-2022, 00:18:33,     34,    0.0,   14.5,   0.00,   0.00, 1008.3,   98.7, -999.0
17-08-2022, 00:18:44,     34,    0.0,   14.5,   0.00,   0.00, 1008.3,   98.7, -999.0
17-08-2022, 00:18:53,     34,    0.0,   14.5,   0.00,   0.00, 1008.3,   98.8, -999.0
17-08-2022, 00:19:03,     34,    0.0,   14.5,   0.00,   0.00, 1008.3,   98.8, -999.0
17-08-2022, 00:19:13,     34,    0.0,   14.4,   0.00,   0.00, 1008.3,   98.7, -999.0
17-08-2022, 00:19:23,     34,    0.0,   14.5,   0.00,   0.00, 1008.3,   98.7, -999.0
17-08-2022, 00:19:33,     34,    0.0,   14.5,   0.00,   0.00, 1008.3,   98.8, -999.0
17-08-2022, 00:19:43,     34,    0.0,   14.5,   0.00,   0.00, 1008.3,   98.7, -999.0
17-08-2022, 00:19:53,     34,    0.0,   14.5,   0.00,   0.00, 1008.3,   98.7, -999.0
17-08-2022, 00:20:03,     34,    0.0,   14.5,   0.00,   0.00, 1008.3,   98.8, -999.0
17-08-2022, 00:20:13,     34,    0.0,   14.5,   0.00,   0.00, 1008.3,   98.8, -999.0
17-08-2022, 00:20:23,     34,    0.0,   14.6,   0.00,   0.00, 1008.3,   98.7, -999.0
17-08-2022, 00:20:33,     34,    0.0,   14.5,   0.00,   0.00, 1008.3,   98.7, -999.0
17-08-2022, 00:20:43,     34,    0.0,   14.5,   0.00,   0.00, 1008.3,   98.8, -999.0
17-08-2022, 00:20:53,     34,    0.0,   14.4,   0.00,   0.00, 1008.3,   98.8, -999.0
17-08-2022, 00:21:03,     34,    0.0,   14.5,   0.00,   0.00, 1008.3,   98.8, -999.0
17-08-2022, 00:21:13,     34,    0.0,   14.5,   0.00,   0.00, 1008.3,   98.8, -999.0
17-08-2022, 00:21:23,     34,    0.0,   14.5,   0.00,   0.00, 1008.3,   98.8, -999.0
17-08-2022, 00:21:33,     34,    0.0,   14.5,   0.00,   0.00, 1008.3,   98.7, -999.0
17-08-2022, 00:21:42,     34,    0.0,   14.4,   0.00,   0.00, 1008.3,   98.7, -999.0
17-08-2022, 00:21:53,     34,    0.0,   14.5,   0.00,   0.00, 1008.3,   98.8, -999.0
17-08-2022, 00:22:02,     34,    0.0,   14.4,   0.00,   0.00, 1008.4,   98.8, -999.0
17-08-2022, 00:22:12,     34,    0.0,   14.4,   0.00,   0.00, 1008.3,   98.8, -999.0
17-08-2022, 00:22:22,     34,    0.0,   14.4,   0.00,   0.00, 1008.4,   98.8, -999.0
17-08-2022, 00:22:32,     34,    0.0,   14.4,   0.00,   0.00, 1008.4,   98.8, -999.0
17-08-2022, 00:22:42,     34,    0.0,   14.4,   0.00,   0.00, 1008.3,   98.8, -999.0
17-08-2022, 00:22:52,     34,    0.0,   14.4,   0.00,   0.00, 1008.3,   98.8, -999.0
17-08-2022, 00:23:02,     34,    0.0,   14.5,   0.00,   0.00, 1008.3,   98.7, -999.0
17-08-2022, 00:23:12,     34,    0.0,   14.4,   0.00,   0.00, 1008.4,   98.8, -999.0
17-08-2022, 00:23:22,     34,    0.0,   14.5,   0.00,   0.00, 1008.4,   98.8, -999.0
17-08-2022, 00:23:32,     34,    0.0,   14.5,   0.00,   0.00, 1008.3,   98.7, -999.0
17-08-2022, 00:23:42,     34,    0.0,   14.5,   0.00,   0.00, 1008.4,   98.8, -999.0
17-08-2022, 00:23:52,     34,    0.0,   14.3,   0.00,   0.00, 1008.4,   98.8, -999.0
17-08-2022, 00:24:02,     34,    0.0,   14.4,   0.00,   0.00, 1008.4,   98.8, -999.0
17-08-2022, 00:24:11,     34,    0.0,   14.4,   0.00,   0.00, 1008.4,   98.6, -999.0
17-08-2022, 00:24:22,     34,    0.0,   14.5,   0.00,   0.00, 1008.4,   98.7, -999.0
17-08-2022, 00:24:32,     34,    0.0,   14.5,   0.00,   0.00, 1008.4,   98.8, -999.0
17-08-2022, 00:24:41,     34,    0.0,   14.5,   0.00,   0.00, 1008.4,   98.8, -999.0
17-08-2022, 00:24:51,     34,    0.0,   14.5,   0.00,   0.00, 1008.4,   98.7, -999.0
17-08-2022, 00:25:02,     34,    0.0,   14.4,   0.00,   0.00, 1008.4,   98.8, -999.0
17-08-2022, 00:25:11,     34,    0.0,   14.4,   0.00,   0.00, 1008.4,   98.7, -999.0
17-08-2022, 00:25:21,     34,    0.0,   14.4,   0.00,   0.00, 1008.4,   98.7, -999.0
17-08-2022, 00:25:31,     31,    0.0,   14.5,   0.00,   0.00, 1008.4,   98.8, -999.0
17-08-2022, 00:25:41,     34,    0.0,   14.4,   0.00,   0.00, 1008.4,   98.7, -999.0
17-08-2022, 00:25:51,     34,    0.0,   14.5,   0.00,   0.00, 1008.3,   98.8, -999.0
17-08-2022, 00:26:01,     33,    0.0,   14.5,   0.00,   0.00, 1008.4,   98.7, -999.0
17-08-2022, 00:26:11,     34,    0.0,   14.4,   0.00,   0.00, 1008.4,   98.7, -999.0
17-08-2022, 00:26:21,     34,    0.0,   14.4,   0.00,   0.00, 1008.4,   98.7, -999.0
17-08-2022, 00:26:31,     34,    0.0,   14.4,   0.00,   0.00, 1008.4,   98.7, -999.0
17-08-2022, 00:26:41,     34,    0.0,   14.5,   0.00,   0.00, 1008.3,   98.7, -999.0
17-08-2022, 00:26:51,     34,    0.0,   14.5,   0.00,   0.00, 1008.4,   98.9, -999.0
17-08-2022, 00:27:01,     34,    0.0,   14.5,   0.00,   0.00, 1008.4,   98.7, -999.0
17-08-2022, 00:27:11,     34,    0.0,   14.5,   0.00,   0.00, 1008.4,   98.7, -999.0
17-08-2022, 00:27:20,     34,    0.0,   14.4,   0.00,   0.00, 1008.4,   98.8, -999.0
17-08-2022, 00:27:30,     34,    0.0,   14.4,   0.00,   0.00, 1008.4,   98.8, -999.0
17-08-2022, 00:27:41,     36,    0.0,   14.4,   0.00,   0.00, 1008.4,   98.8, -999.0
17-08-2022, 00:27:50,     34,    0.0,   14.3,   0.00,   0.00, 1008.4,   98.7, -999.0
17-08-2022, 00:28:00,     34,    0.0,   14.4,   0.00,   0.00, 1008.4,   98.8, -999.0
17-08-2022, 00:28:11,     34,    0.0,   14.4,   0.00,   0.00, 1008.4,   98.7, -999.0
17-08-2022, 00:28:20,     34,    0.0,   14.4,   0.00,   0.00, 1008.4,   98.7, -999.0
17-08-2022, 00:28:30,     34,    0.0,   14.4,   0.00,   0.00, 1008.4,   98.8, -999.0
17-08-2022, 00:28:40,     34,    0.0,   14.5,   0.00,   0.00, 1008.3,   98.8, -999.0
17-08-2022, 00:28:50,     34,    0.0,   14.4,   0.00,   0.00, 1008.4,   98.7, -999.0
17-08-2022, 00:29:00,     34,    0.0,   14.4,   0.00,   0.00, 1008.3,   98.8, -999.0
17-08-2022, 00:29:10,     34,    0.0,   14.5,   0.00,   0.00, 1008.3,   98.7, -999.0
17-08-2022, 00:29:20,     34,    0.0,   14.4,   0.00,   0.00, 1008.4,   98.8, -999.0
17-08-2022, 00:29:30,     35,    0.0,   14.5,   0.00,   0.00, 1008.4,   98.7, -999.0
17-08-2022, 00:29:40,     34,    0.0,   14.5,   0.00,   0.00, 1008.3,   98.7, -999.0
17-08-2022, 00:29:50,     34,    0.0,   14.5,   0.00,   0.00, 1008.3,   98.7, -999.0
17-08-2022, 00:29:59,     30,    0.0,   14.5,   0.00,   0.00, 1008.4,   98.8, -999.0
17-08-2022, 00:30:10,      0,    0.0,   14.4,   0.00,   0.00, 1008.4,   98.8, -999.0
17-08-2022, 00:30:20,      0,    0.0,   14.4,   0.00,   0.00, 1008.4,   98.8, -999.0
17-08-2022, 00:30:29,      0,    0.0,   14.3,   0.00,   0.00, 1008.3,   98.8, -999.0
17-08-2022, 00:30:39,      0,    0.0,   14.3,   0.00,   0.00, 1008.4,   98.8, -999.0
17-08-2022, 00:30:50,      0,    0.0,   14.3,   0.00,   0.00, 1008.4,   98.8, -999.0
17-08-2022, 00:30:59,      0,    0.0,   14.4,   0.00,   0.00, 1008.4,   98.7, -999.0
17-08-2022, 00:31:09,      0,    0.0,   14.4,   0.00,   0.00, 1008.4,   98.7, -999.0
17-08-2022, 00:31:19,      0,    0.0,   14.4,   0.00,   0.00, 1008.4,   98.7, -999.0
17-08-2022, 00:31:29,      0,    0.0,   14.5,   0.00,   0.00, 1008.3,   98.8, -999.0
17-08-2022, 00:31:39,      0,    0.0,   14.4,   0.00,   0.00, 1008.3,   98.8, -999.0
17-08-2022, 00:31:49,      0,    0.0,   14.5,   0.00,   0.00, 1008.3,   98.8, -999.0
17-08-2022, 00:31:59,      0,    0.0,   14.5,   0.00,   0.00, 1008.4,   98.8, -999.0
17-08-2022, 00:32:09,      0,    0.0,   14.4,   0.00,   0.00, 1008.3,   98.7, -999.0
17-08-2022, 00:32:19,      0,    0.0,   14.4,   0.00,   0.00, 1008.3,   98.8, -999.0
17-08-2022, 00:32:29,      0,    0.0,   14.5,   0.00,   0.00, 1008.3,   98.7, -999.0
17-08-2022, 00:32:39,      0,    0.0,   14.5,   0.00,   0.00, 1008.3,   98.9, -999.0
17-08-2022, 00:32:49,      0,    0.0,   14.5,   0.00,   0.00, 1008.4,   98.6, -999.0
17-08-2022, 00:32:59,      0,    0.0,   14.5,   0.00,   0.00, 1008.4,   98.7, -999.0
17-08-2022, 00:33:08,      0,    0.0,   14.5,   0.00,   0.00, 1008.4,   98.7, -999.0
17-08-2022, 00:33:19,      0,    0.0,   14.5,   0.00,   0.00, 1008.3,   98.7, -999.0
17-08-2022, 00:33:29,      0,    0.0,   14.3,   0.00,   0.00, 1008.4,   98.7, -999.0
17-08-2022, 00:33:38,      0,    0.0,   14.4,   0.00,   0.00, 1008.3,   98.8, -999.0
17-08-2022, 00:33:48,      0,    0.0,   14.5,   0.00,   0.00, 1008.4,   98.8, -999.0
17-08-2022, 00:33:59,      0,    0.0,   14.4,   0.00,   0.00, 1008.3,   98.8, -999.0
17-08-2022, 00:34:08,      0,    0.0,   14.4,   0.00,   0.00, 1008.3,   98.7, -999.0
17-08-2022, 00:34:18,      0,    0.0,   14.5,   0.00,   0.00, 1008.3,   98.8, -999.0
17-08-2022, 00:34:28,      0,    0.0,   14.4,   0.00,   0.00, 1008.3,   98.8, -999.0
17-08-2022, 00:34:38,      0,    0.0,   14.5,   0.00,   0.00, 1008.3,   98.7, -999.0
17-08-2022, 00:34:48,      0,    0.0,   14.5,   0.00,   0.00, 1008.3,   98.7, -999.0
17-08-2022, 00:34:58,      0,    0.0,   14.4,   0.00,   0.00, 1008.3,   98.8, -999.0
17-08-2022, 00:35:08,      0,    0.0,   14.5,   0.00,   0.00, 1008.3,   98.8, -999.0
17-08-2022, 00:35:18,      0,    0.0,   14.5,   0.00,   0.00, 1008.3,   98.7, -999.0
17-08-2022, 00:35:28,      0,    0.0,   14.4,   0.00,   0.00, 1008.3,   98.8, -999.0
17-08-2022, 00:35:38,      0,    0.0,   14.5,   0.00,   0.00, 1008.3,   98.8, -999.0
17-08-2022, 00:35:48,      3,    0.0,   14.5,   0.00,   0.00, 1008.3,   98.7, -999.0
17-08-2022, 00:35:58,      3,    0.0,   14.4,   0.00,   0.00, 1008.3,   98.7, -999.0
17-08-2022, 00:36:08,      8,    0.0,   14.5,   0.00,   0.00, 1008.3,   98.8, -999.0
17-08-2022, 00:36:17,      8,    0.0,   14.4,   0.00,   0.00, 1008.3,   98.8, -999.0
17-08-2022, 00:36:28,     21,    0.0,   14.5,   0.00,   0.00, 1008.3,   98.7, -999.0
17-08-2022, 00:36:37,     21,    0.0,   14.5,   0.00,   0.00, 1008.3,   98.7, -999.0
17-08-2022, 00:36:47,     21,    0.0,   14.5,   0.00,   0.00, 1008.3,   98.8, -999.0
17-08-2022, 00:36:57,     21,    0.0,   14.5,   0.00,   0.00, 1008.3,   98.7, -999.0
17-08-2022, 00:37:07,     21,    0.0,   14.3,   0.00,   0.00, 1008.3,   98.7, -999.0
17-08-2022, 00:37:17,     21,    0.0,   14.4,   0.00,   0.00, 1008.3,   98.7, -999.0
17-08-2022, 00:37:27,     21,    0.0,   14.4,   0.00,   0.00, 1008.3,   98.7, -999.0
17-08-2022, 00:37:37,     21,    0.0,   14.5,   0.00,   0.00, 1008.3,   98.7, -999.0
17-08-2022, 00:37:47,     21,    0.0,   14.5,   0.00,   0.00, 1008.3,   98.7, -999.0
17-08-2022, 00:37:57,     21,    0.0,   14.5,   0.00,   0.00, 1008.3,   98.8, -999.0
17-08-2022, 00:38:07,     21,    0.0,   14.6,   0.00,   0.00, 1008.3,   98.7, -999.0
17-08-2022, 00:38:17,     21,    0.0,   14.5,   0.00,   0.00, 1008.3,   98.7, -999.0
17-08-2022, 00:38:27,     21,    0.0,   14.5,   0.00,   0.00, 1008.3,   98.7, -999.0
17-08-2022, 00:38:37,     21,    0.0,   14.5,   0.00,   0.00, 1008.3,   98.8, -999.0
17-08-2022, 00:38:47,     21,    0.0,   14.6,   0.00,   0.00, 1008.3,   98.7, -999.0
17-08-2022, 00:38:57,     21,    0.0,   14.6,   0.00,   0.00, 1008.3,   98.8, -999.0
17-08-2022, 00:39:07,     21,    0.0,   14.6,   0.00,   0.00, 1008.3,   98.8, -999.0
17-08-2022, 00:39:16,     21,    0.0,   14.5,   0.00,   0.00, 1008.3,   98.7, -999.0
17-08-2022, 00:39:26,     21,    0.0,   14.6,   0.00,   0.00, 1008.3,   98.8, -999.0
17-08-2022, 00:39:37,     21,    0.0,   14.5,   0.00,   0.00, 1008.3,   98.8, -999.0
17-08-2022, 00:39:46,     21,    0.0,   14.5,   0.00,   0.00, 1008.3,   98.8, -999.0
17-08-2022, 00:39:56,     21,    0.0,   14.5,   0.00,   0.00, 1008.3,   98.8, -999.0
17-08-2022, 00:40:06,     21,    0.0,   14.5,   0.00,   0.00, 1008.3,   98.8, -999.0
17-08-2022, 00:40:16,     67,    0.0,   14.3,   0.00,   0.00, 1008.3,   98.8, -999.0
17-08-2022, 00:40:26,     67,    0.0,   14.5,   0.00,   0.00, 1008.3,   98.8, -999.0
17-08-2022, 00:40:36,     68,    0.0,   14.6,   0.00,   0.00, 1008.3,   98.7, -999.0
17-08-2022, 00:40:46,     67,    0.0,   14.5,   0.00,   0.00, 1008.3,   98.7, -999.0
17-08-2022, 00:40:56,     65,    0.0,   14.5,   0.00,   0.00, 1008.3,   98.8, -999.0
17-08-2022, 00:41:06,     65,    0.0,   14.5,   0.00,   0.00, 1008.3,   98.7, -999.0
17-08-2022, 00:41:16,     65,    0.0,   14.4,   0.00,   0.00, 1008.3,   98.8, -999.0
17-08-2022, 00:41:26,     65,    0.0,   14.5,   0.00,   0.00, 1008.3,   98.7, -999.0
17-08-2022, 00:41:36,     55,    0.0,   14.5,   0.00,   0.00, 1008.3,   98.6, -999.0
17-08-2022, 00:41:46,     54,    0.0,   14.5,   0.00,   0.00, 1008.3,   98.8, -999.0
17-08-2022, 00:41:55,     54,    0.0,   14.5,   0.00,   0.00, 1008.3,   98.7, -999.0
17-08-2022, 00:42:06,     54,    0.0,   14.5,   0.00,   0.00, 1008.3,   98.7, -999.0
17-08-2022, 00:42:16,     54,    0.0,   14.5,   0.00,   0.00, 1008.3,   98.8, -999.0
17-08-2022, 00:42:25,     54,    0.0,   14.5,   0.00,   0.00, 1008.3,   98.8, -999.0
17-08-2022, 00:42:35,     54,    0.0,   14.5,   0.00,   0.00, 1008.3,   98.7, -999.0
17-08-2022, 00:42:46,     53,    0.0,   14.5,   0.00,   0.00, 1008.3,   98.8, -999.0
17-08-2022, 00:42:55,     54,    0.0,   14.4,   0.00,   0.00, 1008.3,   98.8, -999.0
17-08-2022, 00:43:05,     54,    0.0,   14.5,   0.00,   0.00, 1008.3,   98.8, -999.0
17-08-2022, 00:43:15,     54,    0.0,   14.5,   0.00,   0.00, 1008.3,   98.8, -999.0
17-08-2022, 00:43:25,     54,    0.0,   14.5,   0.00,   0.00, 1008.3,   98.7, -999.0
17-08-2022, 00:43:35,     52,    0.0,   14.6,   0.00,   0.00, 1008.2,   98.7, -999.0
17-08-2022, 00:43:45,     52,    0.0,   14.5,   0.00,   0.00, 1008.3,   98.7, -999.0
17-08-2022, 00:43:55,     52,    0.0,   14.5,   0.00,   0.00, 1008.3,   98.8, -999.0
17-08-2022, 00:44:05,     52,    0.0,   14.5,   0.00,   0.00, 1008.2,   98.8, -999.0
17-08-2022, 00:44:15,     52,    0.0,   14.5,   0.00,   0.00, 1008.2,   98.7, -999.0
17-08-2022, 00:44:25,     52,    0.0,   14.6,   0.00,   0.00, 1008.3,   98.8, -999.0
17-08-2022, 00:44:34,     52,    0.0,   14.5,   0.00,   0.00, 1008.3,   98.8, -999.0
17-08-2022, 00:44:45,     52,    0.0,   14.5,   0.00,   0.00, 1008.2,   98.8, -999.0
17-08-2022, 00:44:55,     52,    0.0,   14.5,   0.00,   0.00, 1008.3,   98.7, -999.0
17-08-2022, 00:45:04,     52,    0.0,   14.5,   0.00,   0.00, 1008.3,   98.8, -999.0
17-08-2022, 00:45:14,     52,    0.0,   14.5,   0.00,   0.00, 1008.2,   98.8, -999.0
17-08-2022, 00:45:25,     52,    0.0,   14.5,   0.00,   0.00, 1008.3,   98.8, -999.0
17-08-2022, 00:45:34,     52,    0.0,   14.5,   0.00,   0.00, 1008.2,   98.8, -999.0
17-08-2022, 00:45:44,     52,    0.0,   14.5,   0.00,   0.00, 1008.3,   98.8, -999.0
17-08-2022, 00:45:54,     52,    0.0,   14.5,   0.00,   0.00, 1008.3,   98.7, -999.0
17-08-2022, 00:46:04,     52,    0.0,   14.5,   0.00,   0.00, 1008.3,   98.7, -999.0
17-08-2022, 00:46:14,     52,    0.0,   14.6,   0.00,   0.00, 1008.3,   98.8, -999.0
17-08-2022, 00:46:24,     52,    0.0,   14.5,   0.00,   0.00, 1008.3,   98.7, -999.0
17-08-2022, 00:46:34,     52,    0.0,   14.5,   0.00,   0.00, 1008.2,   98.8, -999.0